QTR77 ORBI-OBBI

Flight info

Callsign QTR77
Flight time N/A
Altitude 21000
Route DCT BGD DCT NOLDO P975 LONOS L703 KOBOK KOBOK1
Aircraft A332/H-SDE3GHIJ2J3J5M1RVWXY/LB2D1

Departure

Time 2026-04-28 08:15
Airport Baghdad International Airport / New Al Muthana Air Base (ORBI)

Arrival

Time N/A
Airport Bahrain International Airport (OBBI)
Time Latitude Longitude Altitude Speed Heading
2026-04-28 08:06 33.26904 44.22906 117 ft 0 kts 178°
2026-04-28 08:07 33.26906 44.22906 117 ft 0 kts
2026-04-28 08:08 33.28317 44.23008 114 ft 0 kts 60°
2026-04-28 08:14 33.28319 44.23010 114 ft 1 kts 60°
2026-04-28 08:14 33.28322 44.23018 115 ft 1 kts 60°
2026-04-28 08:14 33.28329 44.23033 111 ft 5 kts 60°
2026-04-28 08:14 33.28341 44.23116 113 ft 15 kts 106°
2026-04-28 08:15 33.28234 44.23218 112 ft 28 kts 149°
2026-04-28 08:15 33.27869 44.23472 113 ft 103 kts 149°
2026-04-28 08:15 33.26978 44.24095 138 ft 191 kts 149°
2026-04-28 08:15 33.25764 44.24940 1288 ft 210 kts 150°
2026-04-28 08:16 33.24448 44.25922 2502 ft 232 kts 142°
2026-04-28 08:16 33.23230 44.27214 3472 ft 238 kts 135°
2026-04-28 08:16 33.22084 44.28707 4178 ft 249 kts 131°
2026-04-28 08:16 33.20961 44.30278 4961 ft 254 kts 131°
2026-04-28 08:17 33.19793 44.31910 5632 ft 264 kts 132°
2026-04-28 08:17 33.18552 44.33595 6490 ft 273 kts 133°
2026-04-28 08:17 33.17268 44.35288 7522 ft 276 kts 135°
2026-04-28 08:17 33.16398 44.36409 8243 ft 278 kts 136°
2026-04-28 08:18 33.15064 44.38101 9343 ft 281 kts 137°
2026-04-28 08:18 33.13703 44.39803 10336 ft 287 kts 138°
2026-04-28 08:18 33.12268 44.41576 10833 ft 309 kts 138°
2026-04-28 08:18 33.10732 44.43467 11448 ft 323 kts 138°
2026-04-28 08:19 33.09155 44.45417 12389 ft 328 kts 139°
2026-04-28 08:19 33.07566 44.47390 13364 ft 331 kts 139°
2026-04-28 08:19 33.05961 44.49383 14252 ft 335 kts 139°
2026-04-28 08:19 33.04350 44.51378 15041 ft 341 kts 140°
2026-04-28 08:20 33.02689 44.53430 15830 ft 347 kts 140°
2026-04-28 08:20 33.00999 44.55513 16635 ft 352 kts 140°
2026-04-28 08:20 32.99282 44.57627 17444 ft 357 kts 140°
2026-04-28 08:20 32.97543 44.59764 18240 ft 362 kts 140°
2026-04-28 08:21 32.95777 44.61932 18891 ft 367 kts 140°
2026-04-28 08:21 32.93981 44.64134 19538 ft 372 kts 140°
2026-04-28 08:21 32.92165 44.66359 20213 ft 376 kts 140°
2026-04-28 08:21 32.90333 44.68603 20892 ft 380 kts 140°
2026-04-28 08:22 32.88480 44.70869 21560 ft 384 kts 140°
2026-04-28 08:22 32.86600 44.73165 22212 ft 388 kts 140°
2026-04-28 08:22 32.84703 44.75480 22849 ft 393 kts 140°
2026-04-28 08:22 32.82783 44.77821 23491 ft 397 kts 140°
2026-04-28 08:23 32.80870 44.80153 23987 ft 401 kts 140°
2026-04-28 08:23 32.78913 44.82535 24508 ft 404 kts 140°
2026-04-28 08:23 32.76948 44.84928 24821 ft 405 kts 139°
2026-04-28 08:23 32.74994 44.87308 24901 ft 399 kts 139°
2026-04-28 08:24 32.73068 44.89654 24907 ft 395 kts 140°
2026-04-28 08:24 32.71150 44.91985 24907 ft 395 kts 140°
2026-04-28 08:24 32.69230 44.94314 24908 ft 395 kts 140°
2026-04-28 08:24 32.67308 44.96643 24910 ft 395 kts 140°
2026-04-28 08:25 32.65375 44.98984 24897 ft 396 kts 140°
2026-04-28 08:25 32.63443 45.01324 24900 ft 398 kts 140°
2026-04-28 08:25 32.61502 45.03672 24902 ft 399 kts 140°
2026-04-28 08:26 32.57610 45.08383 24893 ft 399 kts 140°
2026-04-28 08:26 32.55665 45.10736 24891 ft 399 kts 140°
2026-04-28 08:26 32.53723 45.13084 24890 ft 400 kts 140°
2026-04-28 08:26 32.51738 45.15475 24888 ft 416 kts 140°
2026-04-28 08:27 32.49690 45.17935 24881 ft 432 kts 140°
2026-04-28 08:27 32.47559 45.20504 24882 ft 438 kts 139°
2026-04-28 08:27 32.45425 45.23085 24885 ft 438 kts 139°
2026-04-28 08:27 32.43294 45.25666 24886 ft 438 kts 139°
2026-04-28 08:28 32.41159 45.28249 24881 ft 438 kts 139°
2026-04-28 08:28 32.39021 45.30830 24876 ft 438 kts 139°
2026-04-28 08:28 32.36880 45.33409 24878 ft 439 kts 140°
2026-04-28 08:28 32.34770 45.35946 24871 ft 439 kts 140°
2026-04-28 08:29 32.32631 45.38514 24867 ft 439 kts 140°
2026-04-28 08:29 32.30488 45.41084 24862 ft 439 kts 140°
2026-04-28 08:29 32.28339 45.43658 24865 ft 439 kts 140°
2026-04-28 08:29 32.26191 45.46229 24866 ft 439 kts 140°
2026-04-28 08:30 32.24043 45.48798 24855 ft 440 kts 140°
2026-04-28 08:30 32.21891 45.51371 24854 ft 440 kts 140°
2026-04-28 08:30 32.19736 45.53946 24852 ft 440 kts 140°
2026-04-28 08:30 32.17582 45.56519 24858 ft 440 kts 140°
2026-04-28 08:31 32.15427 45.59090 24829 ft 440 kts 140°
2026-04-28 08:31 32.13275 45.61656 24843 ft 440 kts 140°
2026-04-28 08:31 32.11141 45.64197 24845 ft 441 kts 140°
2026-04-28 08:31 32.08980 45.66769 24837 ft 441 kts 140°
2026-04-28 08:32 32.06816 45.69343 24841 ft 441 kts 140°
2026-04-28 08:32 32.04656 45.71911 24834 ft 441 kts 140°
2026-04-28 08:32 32.02497 45.74477 24832 ft 441 kts 140°
2026-04-28 08:32 32.00334 45.77044 24828 ft 441 kts 140°
2026-04-28 08:33 31.98167 45.79614 24822 ft 441 kts 140°
2026-04-28 08:33 31.96003 45.82179 24821 ft 442 kts 140°
2026-04-28 08:33 31.93837 45.84744 24824 ft 442 kts 140°
2026-04-28 08:33 31.91693 45.87282 24824 ft 442 kts 140°
2026-04-28 08:34 31.89529 45.89843 24808 ft 442 kts 140°
2026-04-28 08:34 31.87357 45.92410 24828 ft 442 kts 140°
2026-04-28 08:34 31.85187 45.94971 24816 ft 442 kts 140°
2026-04-28 08:34 31.83013 45.97538 24810 ft 442 kts 140°
2026-04-28 08:35 31.80836 46.00105 24815 ft 442 kts 140°
2026-04-28 08:35 31.78657 46.02673 24809 ft 442 kts 140°
2026-04-28 08:35 31.76508 46.05205 24805 ft 442 kts 140°
2026-04-28 08:35 31.74320 46.07766 24809 ft 442 kts 140°
2026-04-28 08:36 31.72121 46.10293 24798 ft 442 kts 141°
2026-04-28 08:36 31.69903 46.12796 24794 ft 442 kts 141°
2026-04-28 08:36 31.67666 46.15282 24800 ft 441 kts 142°
2026-04-28 08:36 31.65426 46.17747 24802 ft 441 kts 142°
2026-04-28 08:37 31.63181 46.20202 24789 ft 441 kts 142°
2026-04-28 08:37 31.60927 46.22661 24784 ft 442 kts 142°
2026-04-28 08:37 31.58699 46.25089 24782 ft 442 kts 142°
2026-04-28 08:37 31.56443 46.27548 24774 ft 442 kts 142°
2026-04-28 08:38 31.54190 46.30004 24776 ft 442 kts 142°
2026-04-28 08:38 31.51940 46.32457 24773 ft 442 kts 142°
2026-04-28 08:38 31.49685 46.34914 24771 ft 442 kts 142°
2026-04-28 08:38 31.47428 46.37374 24770 ft 442 kts 142°
2026-04-28 08:39 31.45198 46.39802 24764 ft 443 kts 142°
2026-04-28 08:39 31.42944 46.42254 24764 ft 443 kts 142°
2026-04-28 08:39 31.40687 46.44709 24758 ft 442 kts 142°
2026-04-28 08:39 31.38427 46.47166 24758 ft 442 kts 142°
2026-04-28 08:40 31.36167 46.49620 24761 ft 443 kts 142°
2026-04-28 08:40 31.33906 46.52074 24752 ft 443 kts 142°
2026-04-28 08:40 31.31647 46.54522 24755 ft 443 kts 142°
2026-04-28 08:40 31.29409 46.56949 24750 ft 443 kts 142°
2026-04-28 08:41 31.27144 46.59402 24750 ft 443 kts 142°
2026-04-28 08:41 31.24880 46.61852 24750 ft 443 kts 142°
2026-04-28 08:41 31.22621 46.64295 24744 ft 443 kts 142°
2026-04-28 08:41 31.20356 46.66743 24738 ft 443 kts 142°
2026-04-28 08:42 31.18091 46.69189 24742 ft 443 kts 142°
2026-04-28 08:42 31.15825 46.71635 24741 ft 443 kts 142°
2026-04-28 08:42 31.13556 46.74081 24741 ft 443 kts 142°
2026-04-28 08:42 31.11320 46.76490 24738 ft 443 kts 142°
2026-04-28 08:43 31.09051 46.78935 24737 ft 443 kts 142°
2026-04-28 08:43 31.06781 46.81377 24733 ft 443 kts 142°
2026-04-28 08:43 31.04517 46.83812 24738 ft 443 kts 142°
2026-04-28 08:43 31.02249 46.86249 24741 ft 443 kts 142°
2026-04-28 08:44 30.99980 46.88685 24740 ft 443 kts 142°
2026-04-28 08:44 30.97704 46.91128 24740 ft 443 kts 142°
2026-04-28 08:44 30.95457 46.93538 24737 ft 443 kts 142°
2026-04-28 08:44 30.93185 46.95974 24725 ft 443 kts 143°
2026-04-28 08:45 30.90913 46.98406 24737 ft 444 kts 142°
2026-04-28 08:45 30.88638 47.00840 24741 ft 444 kts 142°
2026-04-28 08:45 30.86359 47.03277 24740 ft 444 kts 142°
2026-04-28 08:45 30.84077 47.05715 24742 ft 444 kts 142°
2026-04-28 08:46 30.81801 47.08147 24743 ft 444 kts 142°
2026-04-28 08:46 30.79527 47.10575 24744 ft 444 kts 142°
2026-04-28 08:46 30.77243 47.13011 24742 ft 445 kts 143°
2026-04-28 08:46 30.74961 47.15442 24744 ft 446 kts 143°
2026-04-28 08:47 30.72670 47.17881 24741 ft 446 kts 143°
2026-04-28 08:47 30.70382 47.20317 24740 ft 446 kts 143°
2026-04-28 08:47 30.68121 47.22724 24747 ft 446 kts 143°
2026-04-28 08:47 30.65836 47.25154 24747 ft 446 kts 143°
2026-04-28 08:48 30.63544 47.27590 24745 ft 446 kts 143°
2026-04-28 08:48 30.61258 47.30018 24749 ft 446 kts 143°
2026-04-28 08:48 30.58969 47.32447 24754 ft 446 kts 143°
2026-04-28 08:48 30.56681 47.34873 24756 ft 446 kts 143°
2026-04-28 08:49 30.54392 47.37299 24760 ft 445 kts 143°
2026-04-28 08:49 30.52102 47.39725 24758 ft 445 kts 143°
2026-04-28 08:49 30.49809 47.42152 24754 ft 445 kts 143°
2026-04-28 08:49 30.47518 47.44574 24763 ft 446 kts 143°
2026-04-28 08:50 30.45228 47.46993 24766 ft 446 kts 143°
2026-04-28 08:50 30.42933 47.49416 24767 ft 446 kts 143°
2026-04-28 08:50 30.40639 47.51837 24767 ft 446 kts 143°
2026-04-28 08:50 30.38344 47.54257 24766 ft 446 kts 143°
2026-04-28 08:51 30.36077 47.56647 24768 ft 446 kts 143°
2026-04-28 08:51 30.33781 47.59065 24765 ft 446 kts 144°
2026-04-28 08:51 30.31481 47.61484 24763 ft 447 kts 144°
2026-04-28 08:51 30.29180 47.63903 24768 ft 447 kts 144°
2026-04-28 08:52 30.26880 47.66321 24765 ft 447 kts 144°
2026-04-28 08:52 30.24577 47.68740 24767 ft 446 kts 144°
2026-04-28 08:52 30.22276 47.71157 24762 ft 446 kts 144°
2026-04-28 08:52 30.19977 47.73569 24766 ft 446 kts 144°
2026-04-28 08:53 30.17670 47.75989 24768 ft 447 kts 144°
2026-04-28 08:53 30.15367 47.78402 24768 ft 447 kts 144°
2026-04-28 08:53 30.13090 47.80787 24771 ft 447 kts 144°
2026-04-28 08:53 30.10784 47.83201 24777 ft 447 kts 144°
2026-04-28 08:54 30.08475 47.85616 24777 ft 446 kts 144°
2026-04-28 08:54 30.06174 47.88021 24779 ft 446 kts 144°
2026-04-28 08:54 30.03863 47.90419 24780 ft 445 kts 146°
2026-04-28 08:54 30.01368 47.92457 24783 ft 437 kts 155°
2026-04-28 08:55 29.98757 47.94228 24794 ft 435 kts 157°
2026-04-28 08:55 29.96107 47.95910 24782 ft 434 kts 158°
2026-04-28 08:55 29.93450 47.97563 24788 ft 434 kts 158°
2026-04-28 08:55 29.90799 47.99223 24788 ft 434 kts 158°
2026-04-28 08:56 29.88152 48.00905 24781 ft 434 kts 158°
2026-04-28 08:56 29.85513 48.02610 24789 ft 435 kts 157°
2026-04-28 08:56 29.82912 48.04313 24794 ft 435 kts 157°
2026-04-28 08:56 29.80283 48.06049 24792 ft 435 kts 156°
2026-04-28 08:57 29.77649 48.07794 24792 ft 435 kts 156°
2026-04-28 08:57 29.75024 48.09536 24792 ft 435 kts 156°
2026-04-28 08:57 29.72400 48.11276 24793 ft 435 kts 156°
2026-04-28 08:57 29.69774 48.13015 24789 ft 436 kts 156°
2026-04-28 08:58 29.67140 48.14758 24790 ft 436 kts 156°
2026-04-28 08:58 29.64505 48.16498 24793 ft 437 kts 157°
2026-04-28 08:58 29.61868 48.18239 24793 ft 437 kts 157°
2026-04-28 08:58 29.59229 48.19979 24794 ft 437 kts 157°
2026-04-28 08:59 29.56592 48.21716 24793 ft 437 kts 157°
2026-04-28 08:59 29.53960 48.23450 24793 ft 437 kts 156°
2026-04-28 08:59 29.51352 48.25165 24799 ft 438 kts 156°
2026-04-28 08:59 29.48704 48.26905 24799 ft 438 kts 156°
2026-04-28 09:00 29.46059 48.28642 24802 ft 438 kts 156°
2026-04-28 09:00 29.43416 48.30399 24802 ft 439 kts 155°
2026-04-28 09:00 29.40823 48.32273 24800 ft 441 kts 153°
2026-04-28 09:00 29.38267 48.34233 24799 ft 442 kts 152°
2026-04-28 09:01 29.35732 48.36231 24796 ft 442 kts 152°
2026-04-28 09:01 29.33199 48.38242 24796 ft 443 kts 152°
2026-04-28 09:01 29.30663 48.40251 24794 ft 443 kts 152°
2026-04-28 09:01 29.28983 48.41574 24795 ft 443 kts 152°
2026-04-28 09:02 29.26442 48.43566 24791 ft 442 kts 152°
2026-04-28 09:02 29.23064 48.46195 24791 ft 443 kts 152°
2026-04-28 09:02 29.20508 48.48173 24772 ft 443 kts 152°
2026-04-28 09:02 29.17947 48.50150 24787 ft 443 kts 152°
2026-04-28 09:03 29.16244 48.51464 24791 ft 444 kts 152°
2026-04-28 09:03 29.13684 48.53436 24791 ft 444 kts 152°
2026-04-28 09:03 29.11125 48.55407 24791 ft 444 kts 152°
2026-04-28 09:03 29.08564 48.57379 24789 ft 444 kts 152°
2026-04-28 09:04 29.06000 48.59352 24785 ft 444 kts 152°
2026-04-28 09:04 29.03432 48.61328 24786 ft 444 kts 152°
2026-04-28 09:04 29.00873 48.63296 24786 ft 444 kts 152°
2026-04-28 09:04 28.98343 48.65241 24783 ft 444 kts 152°
2026-04-28 09:05 28.95780 48.67209 24786 ft 444 kts 152°
2026-04-28 09:05 28.93218 48.69175 24786 ft 444 kts 152°
2026-04-28 09:05 28.90650 48.71145 24784 ft 444 kts 152°
2026-04-28 09:05 28.88086 48.73110 24783 ft 444 kts 152°
2026-04-28 09:06 28.85520 48.75076 24770 ft 444 kts 152°
2026-04-28 09:06 28.82946 48.77048 24778 ft 444 kts 152°
2026-04-28 09:06 28.80378 48.79014 24777 ft 444 kts 152°
2026-04-28 09:06 28.77848 48.80958 24780 ft 444 kts 152°
2026-04-28 09:07 28.75283 48.82933 24778 ft 444 kts 152°
2026-04-28 09:07 28.72722 48.84909 24779 ft 444 kts 152°
2026-04-28 09:07 28.70160 48.86886 24775 ft 444 kts 152°
2026-04-28 09:07 28.67592 48.88866 24776 ft 445 kts 152°
2026-04-28 09:08 28.65024 48.90845 24783 ft 445 kts 152°
2026-04-28 09:08 28.62464 48.92817 24769 ft 445 kts 152°
2026-04-28 09:08 28.59928 48.94769 24772 ft 445 kts 152°
2026-04-28 09:08 28.57361 48.96742 24782 ft 445 kts 152°
2026-04-28 09:09 28.54799 48.98711 24781 ft 445 kts 152°
2026-04-28 09:09 28.52233 49.00681 24779 ft 445 kts 152°
2026-04-28 09:09 28.49670 49.02648 24776 ft 445 kts 152°
2026-04-28 09:09 28.47098 49.04620 24776 ft 445 kts 152°
2026-04-28 09:10 28.44534 49.06585 24775 ft 445 kts 152°
2026-04-28 09:10 28.41967 49.08551 24778 ft 445 kts 152°
2026-04-28 09:10 28.39443 49.10601 24778 ft 448 kts 148°
2026-04-28 09:10 28.37019 49.12846 24778 ft 450 kts 146°
2026-04-28 09:11 28.34666 49.15123 24765 ft 450 kts 146°
2026-04-28 09:11 28.32290 49.17441 24778 ft 451 kts 146°
2026-04-28 09:11 28.29900 49.19747 24780 ft 450 kts 146°
2026-04-28 09:11 28.27494 49.22028 24780 ft 450 kts 147°
2026-04-28 09:12 28.25073 49.24285 24777 ft 450 kts 147°
2026-04-28 09:12 28.22643 49.26525 24782 ft 445 kts 147°
2026-04-28 09:12 28.20290 49.28690 24790 ft 425 kts 148°
2026-04-28 09:12 28.18045 49.30747 24776 ft 406 kts 148°
2026-04-28 09:13 28.15893 49.32706 24797 ft 388 kts 149°
2026-04-28 09:13 28.13810 49.34591 24796 ft 379 kts 149°
2026-04-28 09:13 28.11746 49.36442 24787 ft 379 kts 149°
2026-04-28 09:13 28.09706 49.38270 24788 ft 379 kts 149°
2026-04-28 09:14 28.07636 49.40129 24784 ft 380 kts 149°
2026-04-28 09:14 28.05571 49.41993 24789 ft 380 kts 149°
2026-04-28 09:14 28.03504 49.43866 24795 ft 380 kts 149°
2026-04-28 09:14 28.01440 49.45732 24795 ft 380 kts 149°
2026-04-28 09:15 27.99368 49.47594 24793 ft 380 kts 150°
2026-04-28 09:15 27.97291 49.49455 24794 ft 381 kts 150°
2026-04-28 09:15 27.95210 49.51318 24794 ft 381 kts 150°
2026-04-28 09:15 27.93124 49.53183 24789 ft 381 kts 150°
2026-04-28 09:16 27.91048 49.55039 24798 ft 381 kts 150°
2026-04-28 09:16 27.88998 49.56872 24797 ft 381 kts 150°
2026-04-28 09:16 27.86915 49.58733 24796 ft 381 kts 150°
2026-04-28 09:16 27.84834 49.60591 24796 ft 381 kts 150°
2026-04-28 09:17 27.82752 49.62450 24791 ft 381 kts 150°
2026-04-28 09:17 27.80672 49.64308 24799 ft 381 kts 150°
2026-04-28 09:17 27.78593 49.66162 24799 ft 381 kts 150°
2026-04-28 09:17 27.76512 49.68013 24799 ft 381 kts 150°
2026-04-28 09:18 27.74429 49.69862 24796 ft 381 kts 150°
2026-04-28 09:18 27.72346 49.71706 24802 ft 381 kts 150°
2026-04-28 09:18 27.70266 49.73546 24802 ft 380 kts 150°
2026-04-28 09:18 27.68175 49.75395 24798 ft 380 kts 151°
2026-04-28 09:19 27.66091 49.77236 24789 ft 380 kts 151°
2026-04-28 09:19 27.64009 49.79076 24798 ft 380 kts 151°
2026-04-28 09:19 27.61956 49.80889 24805 ft 379 kts 151°
2026-04-28 09:19 27.59875 49.82726 24805 ft 379 kts 151°
2026-04-28 09:20 27.57795 49.84561 24802 ft 379 kts 151°
2026-04-28 09:20 27.55721 49.86390 24799 ft 379 kts 151°
2026-04-28 09:20 27.53634 49.88230 24798 ft 380 kts 151°
2026-04-28 09:20 27.51468 49.90119 24589 ft 407 kts 151°
2026-04-28 09:21 27.49179 49.92113 24340 ft 419 kts 150°
2026-04-28 09:21 27.46883 49.94136 24086 ft 418 kts 150°
2026-04-28 09:21 27.44635 49.96133 23866 ft 416 kts 150°
2026-04-28 09:21 27.42367 49.98150 23650 ft 414 kts 150°
2026-04-28 09:22 27.40110 50.00152 23434 ft 413 kts 150°
2026-04-28 09:22 27.37854 50.02145 23180 ft 411 kts 150°
2026-04-28 09:22 27.35599 50.04117 22920 ft 409 kts 150°
2026-04-28 09:22 27.33329 50.06042 22655 ft 407 kts 151°
2026-04-28 09:23 27.31053 50.07934 22395 ft 405 kts 152°
2026-04-28 09:23 27.28784 50.09800 22140 ft 404 kts 152°
2026-04-28 09:23 27.26519 50.11655 21879 ft 402 kts 151°
2026-04-28 09:23 27.24265 50.13502 21607 ft 396 kts 151°
2026-04-28 09:24 27.22087 50.15292 21197 ft 390 kts 151°
2026-04-28 09:24 27.19906 50.17080 20704 ft 386 kts 150°
2026-04-28 09:24 27.17742 50.18851 20220 ft 383 kts 150°
2026-04-28 09:24 27.15607 50.20636 19745 ft 381 kts 148°
2026-04-28 09:25 27.13527 50.22485 19267 ft 380 kts 146°
2026-04-28 09:25 27.11486 50.24371 18779 ft 379 kts 145°
2026-04-28 09:25 27.09471 50.26270 18308 ft 378 kts 144°
2026-04-28 09:25 27.07470 50.28171 17805 ft 376 kts 144°
2026-04-28 09:26 27.05484 50.30062 17301 ft 373 kts 144°
2026-04-28 09:26 27.03513 50.31941 16834 ft 370 kts 144°
2026-04-28 09:26 27.01563 50.33798 16372 ft 366 kts 144°
2026-04-28 09:26 26.99628 50.35637 15906 ft 363 kts 144°
2026-04-28 09:27 26.95827 50.39239 14998 ft 357 kts 144°
2026-04-28 09:27 26.93933 50.41032 14533 ft 355 kts 144°
2026-04-28 09:27 26.92057 50.42808 14094 ft 352 kts 144°
2026-04-28 09:28 26.90204 50.44563 13816 ft 343 kts 144°
2026-04-28 09:28 26.88418 50.46259 13661 ft 330 kts 144°
2026-04-28 09:28 26.86701 50.47893 13501 ft 318 kts 145°
2026-04-28 09:28 26.85033 50.49475 13212 ft 311 kts 145°
2026-04-28 09:29 26.83388 50.51031 12845 ft 308 kts 145°
2026-04-28 09:29 26.81757 50.52567 12451 ft 305 kts 145°
2026-04-28 09:29 26.80136 50.54093 12069 ft 303 kts 145°
2026-04-28 09:29 26.78525 50.55609 11683 ft 301 kts 145°
2026-04-28 09:30 26.76938 50.57102 11206 ft 302 kts 144°
2026-04-28 09:30 26.75318 50.58622 10766 ft 302 kts 144°
2026-04-28 09:30 26.73723 50.60123 10514 ft 295 kts 144°
2026-04-28 09:30 26.72165 50.61592 10274 ft 292 kts 144°
2026-04-28 09:31 26.70615 50.63051 9934 ft 291 kts 144°